Simultaneous Nadir Overpasses (SNOs) Predictions

Prediction of SNOs between GOES-17 and TERRA Satellite Orbit:

Table of predicted SNOs for the next 14.0 days since TLE Epoch: 12/5/2020
Index Date Time (GOES-17) GOES-17 Lat,Lon TERRA Lat,Lon Distance(km) Time Diff (sec)
1 12/05/2020 19:27:27 -0.02,-137.21 -0.65,-134.11 351.69 80
2 12/06/2020 07:48:51 0.02,-137.19 -0.45,-139.30 240.08 80
3 12/08/2020 07:33:59 0.02,-137.17 0.21,-136.35 93.93 80
4 12/08/2020 19:55:14 -0.02,-137.17 0.90,-141.50 492.18 80
5 12/10/2020 07:21:46 0.02,-137.14 0.81,-133.38 427.35 80
6 12/10/2020 19:43:01 -0.02,-137.14 0.30,-138.54 158.92 80
7 12/12/2020 19:33:29 -0.02,-137.11 -0.37,-135.59 173.66 80
8 12/13/2020 07:54:52 0.02,-137.09 -0.79,-140.77 418.50 80
9 12/15/2020 07:42:39 0.01,-137.04 -0.17,-137.80 86.88 80
10 12/17/2020 07:27:46 0.00,-136.99 0.44,-134.84 244.43 80
11 12/17/2020 19:49:02 -0.00,-136.99 0.61,-140.01 342.65 80
